Location: Arboyeti
(42.1122°N, 44.6017°E)
Time: 05:44:39
(UTC+00:00)

Lacrosse 5 rocket - Pass Details

Date: 19 April 2021
Orbit: 460 x 634 km, 57.0° (Epoch: 09 May)

Event Time Altitude Azimuth Distance (km) Brightness Sun altitude
Rises 17:46:49 0° 304° (NW) 2,712 6.5 -20.4°
Reaches altitude 10° 17:50:45 10° 342° (NNW) 1,872 4.8 -21.0°
Maximum altitude 17:51:55 11° 358° (N) 1,827 4.5 -21.2°
Drops below altitude 10° 17:53:05 10° 14° (NNE) 1,901 4.4 -21.3°
Enters shadow 17:57:02 - 50° (NE) 2,795 4.8 -21.9°
